Location: Favalello
(42.2939°N, 9.2706°E)
Time: 00:03:48
(UTC+00:00)

Cosmos 2180 Rocket - Pass Details

Date: 06 December 2019
Orbit: 955 x 1004 km, 82.9° (Epoch: 18 January)

Event Time Altitude Azimuth Distance (km) Brightness Sun altitude
Rises 16:41:44 0° 353° (N) 3,677 7.4 -9.3°
Reaches altitude 10° 16:44:15 10° 356° (N) 2,732 6.7 -9.8°
Maximum altitude 16:50:31 75° 81° (E) 1,022 4.5 -10.8°
Drops below altitude 10° 16:56:50 10° 167° (SSE) 2,748 7.0 -11.9°
Sets 16:59:22 0° 169° (S) 3,699 7.6 -12.4°
